map of CGK home
Great Circle Mapper logo
CGK - Airport
Location
City:  Jakarta, Banten, Indonesia
Near (Alt.):Tangerang
Name:Soekarno-Hatta International Airport
Old (Alt.):Cengkareng Airport
ICAO / IATA:WIII / CGK

Details
Type:Airport (Aerodrome, Airfield)
Use:Public/Civil, International (customs port of entry)
Latitude:607'32"S (-6.125566)
Longitude:10639'21"E (106.655897)
Datum:WGS 1984
Elevation:34 ft (10 m)
Variation:0.7E (WMM2015 magnetic declination)
Runways:2
Longest:12008 × 197 ft (3660 × 60 m), paved

Time
Time Zone:UTC+7
Local Time:

Weather
METAR:WIII 180230Z 33007KT 290V030 9999 FEW020CB SCT020 31/25 Q1011 N OSIG RMK CB TO NE
TAF:WIII 171700Z 1718/1824 27007KT 6000 SCT020
TEMPO 1722/1801 VRB05KT FEW020
BECMG 1802/1804 30010KT 9000
TEMPO 1806/1809 FEW020CB SCT021

Related Locations
Nearby:
Farthest:SKTJ: 12450 mi / 20037 km
Tunja, CO

Find:

   beyond  
but within

Other Information
Maps:
NOTAMs:
Links:
Sources:

  
flag of Indonesia   

Sectional Chart

Flight Planning
at skyvector.com

Satellite Image

Google Maps Satellite View

 

Copyright © 2004-2014 Karl L. Swartz. All rights reserved.
The Great Circle Mapper name and logo are trademarks of the Great Circle Mapper.
All other trademarks mentioned herein belong to their respective owners.
Please see credits for attibutions and further copyright information.

  Follow gcmap on Facebook Follow gcmap on Twitter

hCard Microformat

Geo Microformat